Showing default

FOSSASAT2E19 (TAT-E), 62676

Orbit data source: Space-Track

FOSSASAT2E19 (TAT-E), 62676 is a payload satellite owned by Fossa Systems (ES) in SSO that was launched on Tue, 14 Jan 2025 UTC via an FALCON 9 launch vehicle from the Air Force Western Test Range (AFWTR). Payload-class satellites include a variety of spacecraft equipped with specific instruments for various scientific and technological missions. These include communications satellites like Starlink; space stations such as the ISS; scientific satellites like the Hubble; Earth observation satellites from companies like Planet Labs, Umbra, and HawkEye 360; GPS; miniature CubeSats for education and research; and military/defense satellites.

Loading next visibility...
Identifier
62676, 2025-009BV
Orbit
SSO
Country
Flag of ESES / SPN
Related business
Manufacturer
Fossa Systems
Mission
Operational Commercial Communications
Bus & Motor
CUBESAT 3U, Unknown motor
Mass
4 kg wet, 4 kg dry
Launch date (UTC)
2025-01-14 (1 year ago)
Launch vehicle
FALCON 9
Launch site
Air Force Western Test Range (AFWTR)
Object type
Payload
Rocket body
Debris
Shape & HBR
Box + 2 Pan, 0.2 m
Radar Cross Section
0.035 m², Medium (>0.1 m² and < 1m²)

Expand to show TLE details & history
Last TLE update: 9 hours ago

TLE from 9 hours ago
0 FOSSASAT2E19 (TAT-E)
1 62676U 25009BV  26171.46382036  .00001948  00000-0  90499-4 0  9999
2 62676  97.3957 249.6829 0004342 345.0611  15.0496 15.21163504 79191
Epoch: 2026-06-20T11:07Z
TLE epoch observation values (Epoch: 2026-06-20T11:07:54.079Z)
Latitude
0.00002°
Longitude
174.02949°
Altitude
502.537 km
Speed
7.615 km/s
True Right ascension
16h 38m 43s
True Declination
0° 00' 00"
Sunlit
Object was in full shadow at epoch
Visualization orbit readout
Latitude
Unknown
Longitude
Unknown
Altitude
Unknown
Speed
Unknown
Apparent Right ascension
Unknown
Apparent Declination
Unknown
Sunlit
N/A
Visualization observer readout
Local Sidereal Time
07:21:17
Azimuth
Unknown
Elevation
Unknown
Doppler factor
Unknown
Orbital elements
Apogee altitude
502.28 km
Perigee altitude
496.308 km
Semi-major axis
6,877.431 km
Eccentricity
0.00043
Inclination
97.3957°
RAAN
249.6829°
Arg. of periapsis
345.0611°
True anomaly
15.06253°
Mean anomaly
15.0496°
Eccentric anomaly
15.05606°
Mean motion
3.80543 °/min
Orbital period
94.6 mins
BSTAR
0.000090499
Loading maneuver chart data...
Computing Atmospheric mass density...
Loading historical data...
Loading historical data...
Loading historical data...
Loading historical data...
Loading historical data...
Loading historical data...
Loading historical data...

Documentation

Showing up to 5 results
|